Regional Weather Roundup
Issued by NWS

Home | Current Version | Previous Version | Graphics & Text | Print | Product List | Glossary Off
Versions: 1 2 3 4 5 6 7 8 9 10 11 12 13 14 15 16 17 18 19 20 21 22 23 24 25 26 27 28 29 30 31 32 33 34 35 36 37 38 39 40 41 42 43 44 45 46 47 48 49 50

000
ASUS43 KLSX 260159
RWRMO

WEATHER SUMMARY FOR MISSOURI
NATIONAL WEATHER SERVICE SPRINGFIELD MO
800 PM CST TUE NOV 25 2014

NOTE: "FAIR" INDICATES FEW OR NO CLOUDS BELOW 12,000 FEET WITH NO
       SIGNIFICANT WEATHER AND/OR OBSTRUCTIONS TO VISIBILITY.
       CURRENT SKY AND/OR WEATHER CONDITIONS ARE NOT AVAILABLE FOR
       CHILLICOTHE AND FARMINGTON.

MOZ001>031-035>038-043-044-053-054-260300-
...NORTHERN AND WESTERN MISSOURI...

CITY           SKY/WX    TMP DP  RH WIND       PRES   REMARKS
KANSAS CTY INT CLOUDY    37  21  52 S13       30.05F WCI  29
KANSAS C DTWN  MOCLDY    38  19  46 S8        30.07F
LEE`S SUMMIT   MOCLDY    36  15  42 S8        30.08F WCI  30
ST JOSEPH      CLOUDY    35  21  56 S8        30.04F WCI  29
CHILLICOTHE      N/A     31  16  54 S3        30.10F
KIRKSVILLE     CLEAR     25  18  74 SE6       30.11S WCI  18

$$
MOZ066>068-077>081-088>096-101>105-260300-
...SOUTHWEST MISSOURI...

CITY           SKY/WX    TMP DP  RH WIND       PRES   REMARKS
SPRINGFIELD    CLEAR     26  19  74 S5        30.12F WCI  20
JOPLIN         MOCLDY    36  20  52 SE7       30.12F

$$
MOZ032>034-039>042-045>050-055>058-069>072-260300-
...CENTRAL MISSOURI...

CITY           SKY/WX    TMP DP  RH WIND       PRES   REMARKS
COLUMBIA       CLEAR     31  15  52 SE6       30.13S WCI  25
JEFFERSON CITY CLEAR     28  19  69 CALM      30.15F
ROLLA          CLEAR     27  18  69 SE5       30.13S WCI  22
SEDALIA        PTCLDY    30  18  60 S6        30.12S WCI  24
WARRENSBURG    PTCLDY    32  18  55 S5        30.10F WCI  27
OSAGE BEACH    CLEAR     28  16  59 SE3       30.13F

$$
MOZ051-052-059>065-260300-
...EAST CENTRAL MISSOURI...

CITY           SKY/WX    TMP DP  RH WIND       PRES   REMARKS
ST LOUIS INTL  CLEAR     32  22  66 CALM      30.18R
SPIRIT OF STL  CLEAR     27  23  85 CALM      30.17S
ST CHARLES     CLEAR     29  26  89 CALM      30.18R

$$
MOZ072>076-082>087-097>100-106>115-260300-
...SOUTH CENTRAL AND SOUTHEAST MISSOURI...

CITY           SKY/WX    TMP DP  RH WIND       PRES   REMARKS
CAPE GIRARDEAU CLEAR     30  26  85 E3        30.20S
FARMINGTON     CLEAR     27  19  74 CALM      30.18S
POPLAR BLUFF   CLEAR     32  25  75 CALM      30.18S
WEST PLAINS    CLEAR     29  19  66 CALM      30.16S

$$


USA.gov is the U.S. government's official web portal to all federal, state and local government web resources and services.